FENGYUN 1C DEB, 32113

Orbit data source: Space-Track

FENGYUN 1C DEB, 32113 is space debris in SSO originally from a launch on Mon, 10 May 1999 UTC launched from the Taiyaun Space Center, China (TSC). Fengyun 1C debris stems from the Chinese weather satellite Fengyun-1C, which was intentionally destroyed by a Chinese anti-satellite missile in 2007. This event dramatically increased the amount of space debris, with thousands of trackable fragments posing hazards to satellites and human spaceflight. The Fengyun 1C debris cloud has become a focal point in discussions about space sustainability and the need for international regulations to prevent the creation of new debris.

Loading next visibility...
Identifier
32113, 1999-025CRF
Orbit
SSO
Country
Flag of CNCN / PRC
Related business
Manufacturer
Unknown
Mission
Spacecraft
Bus & Motor
Unknown
Mass
Unknown
Launch date (UTC)
1999-05-10 (27 years ago)
Launch vehicle
Unknown
Launch site
Taiyaun Space Center, China (TSC)
Object type
Payload
Rocket body
Debris
Shape & HBR
Unknown shape, 0.1 m
Radar Cross Section
Small (<0.1 m²)

Expand to show TLE details & history
Last TLE update: 1 day ago

TLE from 1 day ago
0 FENGYUN 1C DEB
1 32113U 99025CRF 26169.83018118  .00000951  00000-0  58195-3 0  9995
2 32113  99.0047 205.4610 0238144  71.5529 291.1360 13.95029778655087
Epoch: 2026-06-18T19:55Z
TLE epoch observation values (Epoch: 2026-06-18T19:55:27.653Z)
Latitude
-0.00006°
Longitude
-0.47209°
Altitude
854.967 km
Speed
7.455 km/s
True Right ascension
13h 41m 50s
True Declination
0° 00' 00"
Sunlit
Object was in daylight at epoch
Visualization orbit readout
Latitude
Unknown
Longitude
Unknown
Altitude
Unknown
Speed
Unknown
Apparent Right ascension
Unknown
Apparent Declination
Unknown
Sunlit
N/A
Visualization observer readout
Local Sidereal Time
08:08:36
Azimuth
Unknown
Elevation
Unknown
Doppler factor
Unknown
Orbital elements
Apogee altitude
1,081.782 km
Perigee altitude
734.74 km
Semi-major axis
7,286.398 km
Eccentricity
0.02381
Inclination
99.0047°
RAAN
205.461°
Arg. of periapsis
71.5529°
True anomaly
288.56391°
Mean anomaly
291.136°
Eccentric anomaly
289.85263°
Mean motion
3.48959 °/min
Orbital period
103.16 mins
BSTAR
0.00058195
Loading maneuver chart data...
Computing Atmospheric mass density...

Documentation

Showing up to 5 results
|